[[{"header":{"parameterUnit":"m.s-1","parameterCategory":1,"la1":30.2991,"la2":30.254,"lo1":-89.0895,"lo2":-89.0444,"dy":0.0017,"dx":0.0017,"nx":28,"ny":28,"refTime":"2026-01-01T09:00:00:Z","depth":0,"parameterNumber":2,"parameterNumberName":"U-component_of_WINDS"},"data":[0,0,0,0,0,0,0,0,0,0,0,0,0,0,0,0,0,0,0,0,0,0,0,0,0,0,0,0,0,0,0,0,0,0,0,0,0,0,0,0,0,0,0,0,0,0,0,0,0,0,0,0,0,0,0,0,0,0,4.1531,4.1533,0,4.1766,4.1769,4.1771,4.1718,4.1714,4.171,4.1705,4.1951,4.1961,4.1972,0,0,0,0,0,0,0,0,0,0,0,0,0,4.1039,4.1049,4.153,4.1533,4.1536,4.1766,4.1769,4.1772,4.1719,4.1714,4.1708,4.1703,4.1947,4.196,4.1973,0,0,0,0,0,0,0,0,0,0,0,0,0,4.1262,4.1052,4.153,4.1538,4.1541,4.1765,4.1769,4.1773,4.172,4.1714,4.1707,4.1701,4.1943,4.1959,4.1975,4.2207,0,0,4.2023,4.203,0,0,0,0,0,0,0,0,4.1249,4.128,4.1534,4.1537,4.1541,4.1706,4.1686,4.1919,4.1722,4.1652,4.1705,4.1698,4.1875,4.1896,4.1955,4.2219,4.2229,4.2025,4.2035,4.2042,4.2046,0,0,0,0,0,0,0,4.1234,4.1269,4.1624,4.1537,4.1542,4.1531,4.1555,4.173,4.1798,4.1658,4.1655,4.1683,4.1876,4.194,4.1961,4.2233,4.2024,4.2039,4.2049,4.2055,4.27,4.2707,0,0,0,0,0,0,4.1215,4.1257,4.1616,4.1631,4.1376,4.1545,4.1572,4.166,4.1796,4.1811,4.1688,4.168,4.1916,4.1942,4.1969,4.2251,4.2041,4.2056,4.2066,4.2692,4.2701,4.2709,0,0,0,0,0,0,4.1204,4.1247,4.1607,4.1443,4.1488,4.156,4.166,4.1668,4.1732,4.1819,4.1832,4.1741,4.1912,4.1946,4.2148,4.2259,4.2064,4.2078,4.2683,4.2695,4.2705,4.2816,0,0,0,0,0,0,4.119,4.1244,4.1332,4.1445,4.1497,4.1781,4.1666,4.1677,4.1759,4.175,4.1872,4.1886,4.1909,4.2125,4.2164,4.2277,4.2091,4.2674,4.2688,4.2702,4.2803,4.283,4.2853,0,0,0,0,0,4.1173,4.1355,4.1337,4.138,4.1609,4.1788,4.1817,4.1839,4.1768,4.1858,4.1914,4.1882,4.224,4.2146,4.219,4.2309,4.2667,4.2684,4.2701,4.2792,4.2824,4.2852,0,0,0,0,0,0,4.1254,4.137,4.1351,4.1574,4.1671,4.1778,4.1892,4.1873,4.1993,4.198,4.2003,4.2031,4.2237,4.2293,4.2186,4.2542,4.2443,4.247,4.2498,4.2529,4.2554,4.2536,4.2104,0,0,0,0,0,4.1297,4.1432,4.1526,4.1714,4.1764,4.182,4.1899,4.1907,4.2009,4.205,4.2121,4.2222,4.2358,4.2446,4.2576,4.281,4.2837,4.2914,4.2939,4.2959,4.2982,4.3111,4.3147,4.2765,4.2765,4.2764,0,0,4.139,4.1469,4.1553,4.1733,4.1809,4.1949,4.1855,4.2007,4.2111,4.2074,4.2268,4.2324,4.2439,4.2658,4.2758,4.2711,4.3094,4.2981,4.2996,4.3009,4.3132,4.3168,4.3201,4.2776,4.2774,4.2772,0,0,4.1629,4.1702,4.1867,4.1945,4.2061,4.2097,4.2136,4.2246,4.2282,4.2477,4.2451,4.2577,4.2809,4.2892,4.2964,4.3235,4.321,4.3276,4.3407,4.3532,4.3562,4.3589,4.3686,4.3721,4.3299,4.3299,4.3299,0,4.1729,4.1937,4.1955,4.2109,4.219,4.216,4.2328,4.2403,4.2556,4.2613,4.2558,4.2849,4.2924,4.3162,4.3228,4.3288,4.3335,4.3263,4.3556,4.3583,4.3609,4.3702,4.3738,4.3306,4.3306,4.3305,4.3304,0,4.2055,4.22,4.232,4.2466,4.256,4.2721,4.2764,4.2857,4.2857,4.2899,4.3099,4.3188,4.3334,4.3391,4.3394,4.3631,4.3598,4.355,4.3452,4.3652,4.374,4.3776,4.3317,4.3314,4.3312,4.331,0,0,4.2353,4.2506,4.255,4.2616,4.2742,4.2855,4.3015,4.3157,4.3236,4.3343,4.3478,4.3675,4.3631,4.3713,4.3725,4.3835,4.4044,4.3773,4.3776,4.3821,4.4312,4.4348,4.4389,4.4027,4.4034,4.404,4.4302,0,4.2604,4.2884,4.2904,4.3157,4.3292,4.3266,4.3405,4.3498,4.3541,4.3663,4.3712,4.3851,4.3782,4.3831,4.3939,4.3995,4.4143,4.3977,4.4155,4.4161,4.4128,4.4435,4.4474,4.4717,4.4337,4.4342,4.4347,0,4.2935,4.3049,4.3316,4.3422,4.3479,4.3604,4.3736,4.3852,4.3957,4.3981,4.4073,4.4069,4.4234,4.4129,4.4358,4.4244,4.4318,4.4357,4.4367,4.4385,4.4267,4.4462,4.4795,4.4832,4.4401,4.4396,4.4393,0,4.3126,4.3347,4.3535,4.3592,4.3721,4.3809,4.3867,4.3965,4.4049,4.4165,4.422,4.4354,4.4428,4.4533,4.4566,4.4486,4.4794,4.4691,4.482,4.4819,4.4887,4.4882,4.5237,4.4933,4.4933,4.4932,4.4931,0,4.3405,4.3569,4.3623,4.3738,4.3922,4.3944,4.4125,4.4178,4.4266,4.4392,4.4378,4.4497,4.4533,4.4659,4.4686,4.4871,4.4905,4.493,4.4935,4.4932,4.4929,4.4981,4.4966,4.4942,4.4939,4.4938,4.4936,0,4.3651,4.3693,4.3896,4.4,4.403,4.4161,4.4251,4.4363,4.4404,4.4564,4.4603,4.4668,4.4816,4.4858,4.5036,4.5054,4.5273,4.5262,4.5237,4.5237,4.5364,4.5351,4.5766,4.5822,4.548,4.5483,4.5486,0,4.3826,4.3952,4.4069,4.4152,4.4213,4.4347,4.4432,4.4459,4.4549,4.4677,4.4774,4.4919,4.5037,4.5274,4.5339,4.5475,4.5468,4.5604,4.5488,4.5481,4.5471,4.5463,4.5476,4.5626,4.5629,4.5632,4.5635,0,4.4134,4.4148,4.4271,4.4402,4.4504,4.4608,4.4709,4.4778,4.4819,4.4921,4.507,4.5162,4.5342,4.5487,4.5625,4.5686,4.5669,4.567,4.5707,4.5706,4.5686,4.5699,4.5297,4.5661,4.5658,4.5656,4.5655,4.5654,4.4351,4.4461,4.456,4.4698,4.4776,4.487,4.498,4.5034,4.5159,4.5307,4.5315,4.5478,4.558,4.5763,4.5831,4.596,4.592,4.5974,4.5988,4.6001,4.6011,4.5664,4.5985,4.5984,4.5984,4.5983,4.5983,0,4.4658,4.472,4.4846,4.4986,4.5095,4.5066,4.5176,4.5269,4.5412,4.5508,4.5623,4.5796,4.5936,4.6011,4.6151,4.624,4.6235,4.6276,4.627,4.6285,4.6039,4.5993,4.6277,4.6277,4.6277,4.6277,4.6277,4.6277,4.4831,4.5016,4.5042,4.5266,4.5328,4.5486,4.5551,4.5638,4.5714,4.5907,4.6023,4.607,4.6158,4.6304,4.6432,4.645,4.6503,4.6549,4.6563,4.6332,4.6302,4.6273,4.623,4.656,4.656,4.6798,4.68,4.6802]},{"header":{"parameterUnit":"m.s-1","parameterCategory":1,"la1":30.2991,"la2":30.254,"lo1":-89.0895,"lo2":-89.0444,"dy":0.0017,"dx":0.0017,"nx":28,"ny":28,"refTime":"2026-01-01T09:00:00:Z","depth":0,"parameterNumber":3,"parameterNumberName":"V-component_of_WINDS"},"data":[0,0,0,0,0,0,0,0,0,0,0,0,0,0,0,0,0,0,0,0,0,0,0,0,0,0,0,0,0,0,0,0,0,0,0,0,0,0,0,0,0,0,0,0,0,0,0,0,0,0,0,0,0,0,0,0,0,0,0.1416,0.1416,0,0.1417,0.1417,0.1417,0.1384,0.1383,0.1382,0.1381,0.1385,0.1386,0.1387,0,0,0,0,0,0,0,0,0,0,0,0,0,0.1387,0.1387,0.1416,0.1416,0.1416,0.1417,0.1417,0.1417,0.1384,0.1383,0.1382,0.1381,0.1385,0.1386,0.1387,0,0,0,0,0,0,0,0,0,0,0,0,0,0.1395,0.1388,0.1416,0.1399,0.1398,0.1417,0.1417,0.1417,0.1384,0.1383,0.1381,0.138,0.1384,0.1386,0.1387,0.1423,0,0,0.1392,0.1392,0,0,0,0,0,0,0,0,0.1395,0.1396,0.1402,0.1401,0.1399,0.1399,0.1408,0.1419,0.1385,0.139,0.1381,0.138,0.1391,0.1392,0.1395,0.1423,0.1423,0.1392,0.1393,0.1393,0.1394,0,0,0,0,0,0,0,0.1394,0.1396,0.1416,0.1402,0.14,0.1393,0.1392,0.141,0.1398,0.1389,0.1387,0.1387,0.139,0.1394,0.1395,0.1424,0.1392,0.1393,0.1394,0.1394,0.1481,0.1482,0,0,0,0,0,0,0.1395,0.1396,0.1416,0.1416,0.1393,0.1394,0.1394,0.14,0.1398,0.1396,0.1388,0.1385,0.1392,0.1393,0.1395,0.1437,0.1393,0.1395,0.1395,0.1479,0.1481,0.1483,0,0,0,0,0,0,0.1395,0.1398,0.1416,0.1405,0.1407,0.1396,0.1404,0.1401,0.1405,0.1397,0.1395,0.1394,0.1391,0.1393,0.1416,0.1437,0.1395,0.1396,0.1478,0.148,0.1482,0.1521,0,0,0,0,0,0,0.1394,0.1398,0.1411,0.1406,0.1408,0.1437,0.1405,0.1402,0.1407,0.1404,0.1402,0.1401,0.139,0.1414,0.1418,0.1438,0.1398,0.1476,0.1479,0.1481,0.1518,0.1524,0.153,0,0,0,0,0,0.1393,0.1422,0.1412,0.1414,0.1424,0.1438,0.144,0.1426,0.1409,0.1422,0.1417,0.1401,0.1433,0.1417,0.142,0.1441,0.1475,0.1478,0.1481,0.1515,0.1523,0.1529,0,0,0,0,0,0,0.1431,0.1421,0.1409,0.1438,0.1439,0.1433,0.1449,0.1435,0.1442,0.1438,0.1422,0.1422,0.1448,0.1447,0.1428,0.1476,0.1451,0.1455,0.1476,0.1483,0.1489,0.1489,0.1399,0,0,0,0,0,0.1443,0.1454,0.1445,0.1471,0.1472,0.1461,0.1467,0.1456,0.1457,0.1458,0.1454,0.1457,0.1467,0.1475,0.1484,0.1517,0.1516,0.1533,0.1539,0.1544,0.1548,0.1565,0.1572,0.1493,0.1493,0.1493,0,0,0.1467,0.1463,0.1472,0.1479,0.1478,0.1492,0.1462,0.1477,0.1487,0.146,0.1482,0.1479,0.1481,0.1509,0.1521,0.1508,0.1569,0.1548,0.1552,0.1553,0.1569,0.1577,0.1583,0.1496,0.1495,0.1495,0,0,0.1518,0.1516,0.1537,0.1537,0.1536,0.1528,0.1533,0.1529,0.1526,0.1547,0.1527,0.1539,0.1558,0.1559,0.1563,0.1613,0.1599,0.1617,0.1648,0.1665,0.1671,0.1677,0.1695,0.1702,0.1621,0.1621,0.1621,0,0.1549,0.1567,0.155,0.1566,0.157,0.1545,0.1567,0.1568,0.1571,0.1575,0.156,0.1583,0.1582,0.161,0.1622,0.1626,0.1632,0.1618,0.1671,0.1677,0.1682,0.1699,0.1706,0.1623,0.1623,0.1622,0.1622,0,0.1605,0.1618,0.1635,0.1637,0.1643,0.1662,0.1649,0.1656,0.1645,0.1638,0.166,0.1658,0.1666,0.1672,0.1661,0.1698,0.1691,0.1674,0.1649,0.1692,0.1708,0.1714,0.1626,0.1625,0.1625,0.1624,0,0,0.1682,0.1673,0.168,0.168,0.1677,0.1687,0.1705,0.1712,0.172,0.1722,0.1737,0.1753,0.1737,0.1741,0.173,0.1745,0.1785,0.1726,0.1726,0.1738,0.1826,0.184,0.1848,0.1775,0.1776,0.1777,0.1827,0,0.1732,0.1761,0.1746,0.1777,0.1789,0.1765,0.178,0.1781,0.1775,0.1784,0.1778,0.179,0.1768,0.177,0.1783,0.1778,0.1803,0.1774,0.179,0.179,0.1791,0.1856,0.187,0.1917,0.1833,0.1834,0.1835,0,0.1794,0.1798,0.1831,0.1825,0.1829,0.1844,0.1849,0.1858,0.1857,0.1852,0.1856,0.1841,0.1858,0.1833,0.1857,0.1837,0.1842,0.1841,0.1842,0.1844,0.1816,0.1861,0.1932,0.194,0.1844,0.1843,0.1843,0,0.1848,0.1861,0.1883,0.1884,0.1877,0.1888,0.1886,0.1884,0.1889,0.1893,0.1896,0.1903,0.1907,0.1913,0.1901,0.1883,0.1927,0.19,0.1924,0.1924,0.1935,0.1935,0.2009,0.1937,0.1937,0.1937,0.1937,0,0.1906,0.1927,0.1906,0.192,0.1942,0.1925,0.1948,0.1943,0.1941,0.1954,0.1933,0.1945,0.1927,0.1938,0.1928,0.195,0.1952,0.1949,0.1946,0.1951,0.1952,0.1955,0.1952,0.1939,0.1938,0.1938,0.1937,0,0.1971,0.1957,0.1979,0.197,0.1969,0.1986,0.1979,0.1991,0.1983,0.1998,0.2001,0.1989,0.2,0.1988,0.1998,0.1992,0.2021,0.2013,0.2021,0.2019,0.2044,0.2042,0.2124,0.2134,0.2055,0.2055,0.2056,0,0.2009,0.2025,0.2017,0.2023,0.2022,0.2033,0.2037,0.202,0.2026,0.2026,0.2038,0.2047,0.2053,0.2072,0.2065,0.2073,0.2065,0.2093,0.2067,0.2071,0.2067,0.2066,0.2068,0.21,0.2101,0.2101,0.2102,0,0.2079,0.2072,0.2079,0.2083,0.2089,0.2092,0.2094,0.21,0.2082,0.209,0.21,0.2105,0.2115,0.2125,0.213,0.2128,0.2113,0.211,0.2116,0.2122,0.2126,0.2125,0.2037,0.2109,0.2108,0.2108,0.2107,0.2107,0.2133,0.2145,0.2141,0.215,0.2149,0.2151,0.2161,0.2154,0.2162,0.2168,0.2157,0.2171,0.2169,0.2175,0.2175,0.2185,0.2173,0.2182,0.2184,0.2187,0.2191,0.2123,0.2186,0.2186,0.2186,0.2186,0.2185,0,0.2202,0.2198,0.2206,0.2208,0.2215,0.2198,0.2198,0.2205,0.2217,0.2216,0.2223,0.2235,0.2243,0.2236,0.2243,0.2253,0.2246,0.2256,0.2255,0.2255,0.2201,0.2195,0.2261,0.2261,0.2261,0.2261,0.2261,0.2261,0.2239,0.2259,0.2251,0.2271,0.2267,0.2279,0.2281,0.2282,0.2282,0.2296,0.2302,0.2297,0.2294,0.23,0.2308,0.2305,0.2309,0.2322,0.2317,0.2267,0.2259,0.2252,0.2247,0.2323,0.2323,0.2371,0.2371,0.2371]}]]